Location: Unspecified
(29.9680°N, 0.0000°E)
Time: 22:53:19
(UTC+00:00)

A-11 Canister half - Pass Details

Date: 23 June 2019
Orbit: 1526 x 1683 km, 47.3° (Epoch: 15 July)

Event Time Altitude Azimuth Distance (km) Brightness Sun altitude
Rises 10:43:33 0° 310° (NW) 4,676 11.4 71.3°
Reaches altitude 10° 10:46:35 10° 311° (NW) 3,694 11.0 71.9°
Maximum altitude 10:55:55 85° 40° (NE) 1,548 11.1 73.8°
Drops below altitude 10° 11:05:26 10° 129° (SE) 3,760 11.4 75.8°
Sets 11:08:33 0° 130° (SE) 4,763 11.8 76.4°
